TimeCDT,TemperatureF,Dew PointF,Humidity,Sea Level PressureIn,VisibilityMPH,Wind Direction,Wind SpeedMPH,Gust SpeedMPH,PrecipitationIn,Events,Conditions,WindDirDegrees,DateUTC
12:54 AM,66.0,60.1,81,30.17,10.0,South,6.9,-,N/A,,Partly Cloudy,170,2013-07-14 05:54:00
1:54 AM,64.9,60.1,84,30.17,10.0,South,5.8,-,N/A,,Overcast,170,2013-07-14 06:54:00
2:54 AM,63.0,57.9,84,30.16,10.0,SSE,5.8,-,N/A,,Clear,160,2013-07-14 07:54:00
3:54 AM,62.1,57.0,84,30.17,10.0,Calm,Calm,-,N/A,,Partly Cloudy,0,2013-07-14 08:54:00
4:54 AM,61.0,57.0,87,30.17,10.0,Calm,Calm,-,N/A,,Clear,0,2013-07-14 09:54:00
5:54 AM,60.1,57.0,90,30.18,10.0,Calm,Calm,-,N/A,,Clear,0,2013-07-14 10:54:00
6:54 AM,64.0,59.0,84,30.19,10.0,ESE,3.5,-,N/A,,Clear,120,2013-07-14 11:54:00
7:54 AM,69.1,61.0,75,30.19,10.0,South,5.8,-,N/A,,Clear,180,2013-07-14 12:54:00
8:54 AM,73.0,63.0,71,30.21,10.0,South,8.1,-,N/A,,Clear,170,2013-07-14 13:54:00
9:54 AM,75.9,64.0,67,30.21,10.0,South,6.9,-,N/A,,Clear,180,2013-07-14 14:54:00
10:54 AM,77.0,64.9,66,30.22,10.0,WSW,5.8,-,N/A,,Partly Cloudy,240,2013-07-14 15:54:00
11:54 AM,80.1,66.0,62,30.22,10.0,Variable,4.6,-,N/A,,Mostly Cloudy,0,2013-07-14 16:54:00
12:54 PM,81.0,64.0,56,30.22,10.0,SSW,8.1,-,N/A,,Partly Cloudy,210,2013-07-14 17:54:00
1:54 PM,82.0,64.0,54,30.20,10.0,ESE,5.8,-,N/A,,Scattered Clouds,120,2013-07-14 18:54:00
2:54 PM,84.0,64.9,53,30.19,10.0,SSE,12.7,-,N/A,,Partly Cloudy,160,2013-07-14 19:54:00
3:54 PM,84.0,64.0,51,30.19,10.0,South,11.5,-,N/A,,Scattered Clouds,180,2013-07-14 20:54:00
4:54 PM,84.0,64.0,51,30.19,10.0,SSW,9.2,-,N/A,,Scattered Clouds,210,2013-07-14 21:54:00
5:54 PM,82.9,62.1,49,30.19,10.0,SSE,9.2,-,N/A,,Clear,160,2013-07-14 22:54:00
6:54 PM,82.0,63.0,52,30.19,10.0,SSE,5.8,-,N/A,,Clear,150,2013-07-14 23:54:00
7:54 PM,80.1,64.0,58,30.19,10.0,SE,3.5,-,N/A,,Clear,140,2013-07-15 00:54:00
8:54 PM,75.0,64.9,71,30.20,10.0,SSE,3.5,-,N/A,,Clear,160,2013-07-15 01:54:00
9:54 PM,71.1,64.9,81,30.21,10.0,SSE,5.8,-,N/A,,Clear,160,2013-07-15 02:54:00
10:54 PM,70.0,64.0,81,30.22,10.0,SSE,4.6,-,N/A,,Clear,160,2013-07-15 03:54:00
11:54 PM,68.0,64.0,87,30.23,10.0,South,3.5,-,N/A,,Clear,170,2013-07-15 04:54:00